Wind_Speed
25 32 27 23 18 19 18 17 16 15 16 21 21 22 22 20 21 20 22 21 23 25 25 25 23 28 29 31 35 32 25 28 27
26 36 24 23 16 15 11 13 15 15 17 18 20 22 22 20 21 22 20 19 18 19 21 22 23 33 31 32 38 37 42 31 30
26 27 25 26 22 18 12 12 10 10 12 18 19 22 20 21 20 19 17 16 19 19 16 27 25 30 31 30 33 31 35 37 33
24 26 22 21 16 14 16 18 15 13 16 17 18 19 19 18 17 15 15 13 14 16 19 21 25 34 29 30 34 32 33 38 35
19 25 27 22 22 21 18 19 18 21 18 16 18 19 21 20 16 13 12 16 19 19 17 22 22 24 32 31 33 24 21 27 38
21 23 25 28 28 30 24 17 17 19 18 16 17 21 19 17 15 15 18 20 19 17 22 21 29 27 27 30 34 32 29 32 38
30 30 33 31 29 30 28 21 20 20 18 19 17 18 18 18 16 17 19 17 19 24 21 28 30 32 30 32 36 35 34 39 42
36 31 35 28 30 26 25 23 24 23 20 22 22 19 17 17 14 16 20 21 25 30 28 33 36 37 33 34 43 43 42 45 47
43 32 30 34 31 31 27 28 26 25 24 25 25 19 18 18 16 18 23 27 31 36 38 40 42 46 43 47 42 41 45 41 42
45 35 32 34 33 27 30 30 31 32 30 28 27 22 18 22 21 27 30 33 36 41 44 47 49 53 57 57 46 42 44 40 39
40 38 36 34 31 28 34 32 33 35 35 33 27 27 27 28 29 32 35 38 41 44 48 50 51 57 48 46 48 42 43 39 36
41 46 30 38 32 32 33 35 33 34 36 34 33 33 35 30 31 35 40 42 43 48 53 57 57 49 52 53 51 48 40 36 35
52 43 39 41 35 34 37 34 34 35 37 35 33 32 32 33 35 38 41 44 45 50 59 60 53 49 51 54 52 44 35 34 33
42 40 46 43 38 35 39 38 37 35 36 36 37 39 40 39 40 45 45 45 49 52 58 62 58 56 53 52 46 39 37 38 37
39 39 49 47 42 39 38 40 40 40 40 42 43 45 46 44 47 49 47 49 49 53 53 61 59 55 52 47 41 41 38 38 40
36 40 46 49 46 40 37 34 30 36 44 47 47 46 46 49 48 48 50 52 54 56 56 54 57 53 44 44 43 39 41 40 46
35 43 48 50 48 47 44 42 41 38 39 47 51 52 50 46 45 50 54 54 57 52 51 53 48 44 44 43 41 41 40 49 46
37 42 47 43 45 46 48 48 48 48 49 48 47 51 50 50 54 54 56 55 54 47 48 46 47 47 49 45 50 48 45 43 44
39 35 39 41 42 47 49 50 50 49 48 47 46 51 47 53 55 59 55 56 48 43 46 46 44 46 48 46 46 46 48 46 45
41 42 44 47 48 49 51 52 52 52 48 48 48 50 50 55 56 55 54 51 49 50 48 45 47 46 46 46 48 48 45 45 45
Wind_Direction
251 265 242 247 264 270 264 250 258 262 251 247 249 247 252 261 267 272 284 278 284 295 306 309 308 314 312 316 313 304 292 288 281
240 257 237 249 247 256 259 267 272 261 250 244 242 241 249 259 266 277 277 283 289 308 334 342 315 346 326 303 310 301 299 295 289
237 240 243 245 260 248 274 281 295 291 274 258 245 239 244 255 262 264 269 278 309 328 335 1 360 343 326 332 304 301 290 290 297
238 244 245 250 235 250 266 273 280 289 281 271 255 234 235 241 246 257 282 315 338 339 4 347 346 343 350 334 344 328 305 277 284
223 256 257 241 247 255 259 277 283 288 269 269 247 226 229 232 241 270 290 322 338 348 358 357 340 339 337 333 327 331 331 303 290
198 232 238 237 244 257 264 265 275 279 266 257 240 237 236 242 256 285 301 316 329 355 2 353 341 342 337 332 330 326 318 311 303
215 227 236 238 245 248 252 254 263 274 258 253 250 256 263 276 289 308 309 307 321 341 336 333 326 333 325 327 325 324 324 313 304
221 237 237 233 232 233 242 247 253 263 260 253 258 269 289 292 293 308 323 333 337 333 328 322 318 319 319 320 320 316 317 320 314
225 224 241 239 236 237 233 242 254 260 258 259 261 277 288 289 297 296 316 325 322 320 318 316 316 317 309 310 313 316 313 314 311
236 236 235 243 244 234 233 241 254 259 264 262 260 264 274 299 304 300 305 307 310 311 314 315 312 311 310 310 312 315 310 302 305
246 237 236 237 239 236 234 238 249 257 264 265 267 258 266 299 309 307 306 307 305 307 307 303 310 308 305 311 306 308 304 299 299
245 252 224 233 231 239 237 236 246 256 263 264 265 264 272 286 299 303 300 300 303 301 301 298 313 306 306 306 305 304 298 293 294
242 241 225 226 225 232 240 243 246 253 259 266 271 276 277 284 288 294 296 298 297 300 303 305 307 299 298 305 304 299 292 290 294
232 233 216 219 224 234 233 239 243 253 261 266 268 271 275 281 287 292 294 294 295 299 298 304 303 299 300 303 299 288 286 285 287
224 226 214 218 222 229 235 242 242 247 255 261 266 271 276 280 283 286 288 287 291 293 293 298 299 298 295 296 299 295 290 283 292
224 219 212 217 220 229 232 235 243 249 252 256 259 266 269 273 278 285 284 290 294 294 293 296 299 299 293 293 292 289 294 287 296
214 212 216 217 221 228 234 241 245 251 254 256 257 260 263 269 282 278 286 290 295 291 292 295 293 295 295 294 293 293 293 290 294
218 216 216 220 223 228 234 238 243 247 252 254 258 263 264 278 281 281 283 285 288 287 289 290 296 295 293 295 296 297 298 295 296
218 218 220 219 224 225 230 236 242 245 247 257 260 262 276 276 279 286 285 284 281 285 289 293 294 293 295 295 296 298 297 296 299
219 214 214 220 223 225 228 234 239 243 248 255 263 270 270 275 280 282 280 283 284 289 290 292 292 294 296 296 296 297 298 299 297
Height
5893 5889 5892 5894 5896 5896 5896 5896 5896 5896 5896 5897 5899 5900 5902 5902 5901 5901 5902 5900 5898 5896 5897 5896 5896 5894 5892 5891 5887 5884 5883 5882 5880
5890 5883 5887 5890 5891 5892 5893 5893 5892 5891 5891 5892 5894 5895 5896 5897 5896 5896 5896 5896 5895 5897 5897 5895 5893 5891 5888 5885 5882 5879 5877 5876 5875
5881 5880 5882 5884 5886 5887 5888 5889 5889 5888 5888 5888 5889 5890 5891 5891 5891 5892 5892 5893 5895 5894 5893 5892 5890 5887 5882 5879 5874 5870 5867 5867 5867
5879 5875 5876 5879 5881 5882 5883 5884 5886 5886 5885 5884 5884 5885 5885 5886 5887 5888 5889 5891 5891 5891 5891 5890 5887 5882 5877 5875 5866 5859 5857 5856 5857
5874 5871 5872 5874 5875 5876 5879 5880 5881 5882 5881 5880 5880 5880 5880 5882 5884 5886 5887 5887 5888 5889 5887 5886 5884 5880 5874 5869 5864 5857 5851 5853 5852
5866 5865 5863 5869 5871 5870 5874 5876 5877 5877 5876 5876 5876 5876 5877 5880 5882 5883 5884 5884 5884 5884 5884 5882 5879 5875 5871 5866 5861 5855 5850 5848 5845
5858 5861 5860 5863 5865 5866 5868 5871 5872 5873 5872 5873 5872 5874 5875 5876 5878 5879 5878 5879 5878 5879 5879 5878 5874 5871 5867 5862 5858 5852 5847 5843 5839
5849 5853 5854 5856 5859 5860 5863 5864 5866 5867 5868 5868 5869 5871 5872 5873 5874 5874 5874 5873 5872 5871 5873 5872 5868 5865 5862 5857 5853 5846 5839 5835 5830
5839 5843 5847 5849 5851 5852 5856 5858 5860 5862 5862 5862 5863 5866 5867 5869 5870 5868 5867 5867 5867 5865 5865 5862 5860 5856 5854 5848 5844 5838 5831 5827 5821
5829 5834 5838 5840 5843 5845 5848 5851 5853 5854 5856 5857 5859 5860 5862 5863 5864 5864 5862 5860 5859 5858 5856 5853 5850 5847 5841 5838 5834 5827 5823 5818 5814
5818 5824 5828 5831 5834 5836 5839 5843 5845 5846 5849 5850 5853 5855 5855 5856 5856 5856 5855 5853 5852 5851 5848 5844 5839 5836 5832 5828 5825 5819 5815 5809 5805
5809 5815 5821 5822 5826 5829 5831 5835 5838 5839 5841 5844 5847 5849 5849 5849 5849 5848 5847 5846 5844 5842 5838 5833 5830 5825 5820 5817 5815 5810 5805 5800 5798
5797 5807 5811 5812 5818 5821 5825 5828 5831 5833 5835 5837 5839 5840 5841 5842 5841 5841 5840 5837 5835 5833 5828 5823 5821 5816 5812 5807 5802 5798 5795 5792 5790
5785 5794 5799 5805 5809 5814 5819 5821 5824 5826 5828 5830 5832 5832 5833 5833 5833 5832 5830 5828 5825 5822 5817 5811 5808 5805 5801 5796 5792 5789 5786 5782 5780
5775 5782 5789 5796 5801 5806 5810 5814 5817 5820 5821 5823 5824 5824 5825 5825 5824 5822 5820 5817 5813 5809 5804 5801 5797 5792 5789 5786 5782 5779 5776 5773 5771
5766 5772 5778 5784 5790 5796 5801 5804 5807 5811 5813 5814 5815 5815 5815 5815 5813 5811 5808 5804 5800 5796 5793 5788 5784 5780 5777 5775 5772 5769 5766 5760 5759
5755 5761 5768 5774 5780 5785 5790 5794 5797 5800 5802 5804 5804 5803 5803 5801 5801 5798 5796 5792 5788 5784 5780 5776 5772 5770 5767 5764 5762 5759 5757 5752 5747
5746 5754 5761 5766 5771 5776 5781 5784 5786 5788 5790 5791 5792 5793 5791 5791 5787 5785 5782 5778 5775 5771 5768 5764 5761 5758 5756 5753 5750 5747 5743 5739 5735
5740 5745 5752 5757 5761 5766 5770 5773 5776 5777 5779 5780 5781 5780 5780 5777 5775 5772 5769 5765 5763 5760 5758 5754 5751 5747 5745 5740 5738 5735 5730 5726 5722
5731 5734 5740 5746 5751 5755 5758 5761 5763 5765 5767 5769 5769 5770 5767 5765 5762 5759 5756 5754 5752 5750 5748 5745 5740 5737 5732 5729 5726 5723 5719 5716 5711